TimeCDT,TemperatureF,Dew PointF,Humidity,Sea Level PressureIn,VisibilityMPH,Wind Direction,Wind SpeedMPH,Gust SpeedMPH,PrecipitationIn,Events,Conditions,WindDirDegrees,DateUTC
12:53 AM,64.0,61.0,90,29.96,9.0,Calm,Calm,-,N/A,,Clear,0,2012-10-03 05:53:00
1:53 AM,63.0,59.0,87,29.96,10.0,South,3.5,-,N/A,,Clear,180,2012-10-03 06:53:00
2:53 AM,61.0,57.9,90,29.96,10.0,South,3.5,-,N/A,,Clear,170,2012-10-03 07:53:00
3:53 AM,60.1,57.0,90,29.96,10.0,SSE,5.8,-,N/A,,Clear,160,2012-10-03 08:53:00
4:53 AM,59.0,55.9,90,29.97,9.0,Calm,Calm,-,N/A,,Clear,0,2012-10-03 09:53:00
5:53 AM,57.0,55.9,96,29.98,8.0,Calm,Calm,-,N/A,,Clear,0,2012-10-03 10:53:00
6:53 AM,57.0,55.0,93,29.99,8.0,Calm,Calm,-,N/A,,Clear,0,2012-10-03 11:53:00
7:53 AM,59.0,57.0,93,30.00,8.0,Calm,Calm,-,N/A,,Scattered Clouds,0,2012-10-03 12:53:00
8:53 AM,64.9,59.0,81,30.02,10.0,SSE,3.5,-,N/A,,Clear,160,2012-10-03 13:53:00
9:53 AM,69.1,59.0,70,30.04,10.0,SSE,4.6,-,N/A,,Clear,150,2012-10-03 14:53:00
10:53 AM,73.9,59.0,59,30.04,10.0,SE,5.8,-,N/A,,Clear,130,2012-10-03 15:53:00
11:53 AM,77.0,57.0,50,30.04,10.0,Variable,4.6,-,N/A,,Clear,0,2012-10-03 16:53:00
12:53 PM,79.0,55.9,45,30.03,10.0,SSE,8.1,-,N/A,,Clear,160,2012-10-03 17:53:00
1:53 PM,79.0,53.1,40,30.00,10.0,Calm,Calm,-,N/A,,Partly Cloudy,0,2012-10-03 18:53:00
2:53 PM,81.0,53.1,38,29.98,10.0,SSE,8.1,-,N/A,,Partly Cloudy,150,2012-10-03 19:53:00
3:53 PM,82.0,54.0,38,29.98,10.0,SSE,4.6,-,N/A,,Partly Cloudy,150,2012-10-03 20:53:00
4:53 PM,81.0,55.0,41,29.98,10.0,SE,8.1,-,N/A,,Partly Cloudy,140,2012-10-03 21:53:00
5:53 PM,79.0,55.0,44,29.99,10.0,SE,6.9,-,N/A,,Clear,130,2012-10-03 22:53:00
6:53 PM,73.9,57.0,55,30.00,10.0,SE,3.5,-,N/A,,Clear,140,2012-10-03 23:53:00
7:53 PM,68.0,57.9,70,30.01,10.0,SE,5.8,-,N/A,,Clear,130,2012-10-04 00:53:00
8:53 PM,66.0,59.0,78,30.03,10.0,SE,4.6,-,N/A,,Clear,140,2012-10-04 01:53:00
9:53 PM,66.0,59.0,78,30.04,10.0,SE,4.6,-,N/A,,Clear,140,2012-10-04 02:53:00
10:53 PM,66.0,59.0,78,30.06,10.0,SE,5.8,-,N/A,,Clear,140,2012-10-04 03:53:00
11:53 PM,64.9,59.0,81,30.06,10.0,SE,4.6,-,N/A,,Clear,140,2012-10-04 04:53:00